USA 115 (MILSTAR-1 2)

Last updated on Sun Jun 21 2026 00:03:03 GMT+0000 (Coordinated Universal Time)

1 23712U 95060A 26171.22135894 -.00000208 00000+0 00000+0 0 9995 2 23712 14.0740 3.7293 0001604 135.3698 115.8094 1.00364409 32913
UTC large
Height (km)
Speed (km/s)
/
Latitude / Longitude
Inclination (degrees)
Orbital Period (minutes)
Azimuth
Elevation
Range (km)
Doppler Factor

Next 0 passes for location: London (51.5072 / 0.1276)

No passes found over London.
USA 115 (MILSTAR-1 2)